Hourly Data Report for June 09, 2018

LONDON CS
ONTARIO
Current Station Operator: ECCC - MSC

43°02'00.000" N
81°09'00.000" W
278.00 m
6144478
71622
WSN

Download Data

Hourly Data (June 2018)
Hourly Data Report for June 9, 2018
TIME Temp Definition
°C
Dew Point Definition
°C
Rel Hum Definition
%
Wind Dir Definition
10's deg

Wind Spd Definition
km/h
Visibility Definition
km
Stn Press Definition
kPa
Hmdx Definition


Wind Chill Definition


Weather Definition


00:00 16.4 12.3 77 LegendMM LegendMM   98.93     LegendNANA
01:00 14.8 11.9 83 LegendMM LegendMM   98.92     LegendNANA
02:00 14.9 12.2 84 LegendMM LegendMM   98.87     LegendNANA
03:00 14.8 11.7 82 LegendMM LegendMM   98.86     LegendNANA
04:00 14.6 10.3 76 LegendMM LegendMM   98.86     LegendNANA
05:00 14.2 10.1 76 LegendMM LegendMM   98.88     LegendNANA
06:00 15.0 9.8 71 LegendMM LegendMM   98.89     LegendNANA
07:00 16.4 10.4 68 LegendMM LegendMM   98.91     LegendNANA
08:00 17.3 10.4 64 LegendMM LegendMM   98.94     LegendNANA
09:00 18.0 10.5 62 LegendMM LegendMM   98.95     LegendNANA
10:00 19.2 10.8 58 LegendMM LegendMM   98.93     LegendNANA
11:00 19.9 10.1 53 LegendMM LegendMM   98.90     LegendNANA
12:00 20.1 10.7 55 LegendMM LegendMM   98.88     LegendNANA
13:00 19.4 12.2 63 LegendMM LegendMM   98.87     LegendNANA
14:00 19.1 12.8 67 LegendMM LegendMM   98.85     LegendNANA
15:00 18.2 14.5 79 LegendMM LegendMM   98.80     LegendNANA
16:00 17.7 13.5 76 LegendMM LegendMM   98.69     LegendNANA
17:00 17.7 13.4 76 LegendMM LegendMM   98.61     LegendNANA
18:00 17.6 13.4 76 LegendMM LegendMM   98.58     LegendNANA
19:00 17.8 13.4 76 LegendMM LegendMM   98.56     LegendNANA
20:00 18.0 12.0 68 LegendMM LegendMM   98.58     LegendNANA
21:00 17.7 12.4 72 LegendMM LegendMM   98.59     LegendNANA
22:00 17.8 12.4 71 LegendMM LegendMM   98.56     LegendNANA
23:00 18.1 11.6 66 LegendMM LegendMM   98.54     LegendNANA

Notes on Data Quality.

Legend

  • E = Estimated
  • M = Missing
  • NA = Not Available*
  • [empty] = Indicates an unobserved value
Date modified: